EW4221 Weather Reports


time (UTC)temp
F
wind
direction
speed
knots
gust
knots
rain 1hr
in
rain 24hr
in
rain mn
in
humidity
%
barometer
mb
20260507070039 41 317 1.7 7.0 0.00 0.28 0.00 84 1011.3
20260507064524 41 23 2.6 8.7 0.00 0.28 0.00 83 1011.4
20260507063021 41 17 2.6 9.6 0.00 0.28 0.00 82 1011.3
20260507061522 42 327 5.2 11.3 0.00 0.28 0.00 82 1011.3
20260507060020 42 26 5.2 12.2 0.00 0.28 0.00 88 1011.2
20260507054515 42 360 2.6 8.7 0.00 0.28 0.00 88 1011.0
20260507053013 42 267 2.6 5.2 0.00 0.28 0.00 87 1010.8
20260507051514 42 282 1.7 6.1 0.00 0.28 0.00 88 1011.0
20260507050020 43 267 2.6 7.8 0.00 0.28 0.00 87 1011.2
20260507044506 43 288 0.9 6.1 0.00 0.28 0.00 87 1011.1
20260507043002 44 264 2.6 7.8 0.00 0.28 0.00 88 1011.0
20260507041558 44 271 2.6 6.1 0.00 0.28 0.00 92 1010.9
20260507040101 44 238 1.7 5.2 0.00 0.28 0.00 93 1010.7
20260507034601 44 229 0.9 4.3 0.00 0.28 0.28 91 1010.4
20260507033107 44 255 2.6 8.7 0.00 0.28 0.28 91 1010.5
20260507031601 44 303 0.9 7.8 0.00 0.28 0.28 93 1010.2
20260507030107 44 360 3.5 8.7 0.00 0.28 0.28 95 1010.5
20260507024607 44 255 0.0 2.6 0.00 0.28 0.28 95 1010.4
20260507023051 44 227 0.9 3.5 0.00 0.28 0.28 95 1010.8
20260507021555 44 235 0.0 0.0 0.00 0.28 0.28 95 1010.2
20260507020058 44 217 0.0 2.6 0.00 0.28 0.28 95 1010.4
20260507014556 44 267 0.9 3.5 0.00 0.28 0.28 95 1010.7
20260507013053 44 275 0.0 2.6 0.00 0.28 0.28 94 1010.4
20260507011549 44 285 0.0 0.0 0.00 0.28 0.28 94 1010.5
20260507010046 44 267 0.0 3.5 0.00 0.28 0.28 93 1010.4
20260507004543 45 312 0.0 3.5 0.00 0.28 0.28 93 1010.2
20260507003041 45 316 0.9 2.6 0.00 0.28 0.28 94 1010.0
20260507001540 44 317 0.0 3.5 0.00 0.28 0.28 93 1009.7
20260507000039 45 335 0.9 3.5 0.00 0.28 0.28 93 1009.7
20260506234550 45 328 1.7 4.3 0.00 0.28 0.28 93 1009.5
20260506233046 45 300 1.7 3.5 0.00 0.28 0.28 93 1009.5
20260506231536 45 335 0.0 2.6 0.00 0.28 0.28 93 1009.2
20260506230034 45 329 1.7 3.5 0.00 0.28 0.28 94 1009.3
20260506224534 44 255 0.0 2.6 0.00 0.28 0.28 94 1009.1
20260506223032 44 327 3.5 5.2 0.00 0.28 0.28 94 1009.0
20260506221532 44 360 3.5 7.0 0.00 0.28 0.28 94 1009.0
20260506220030 45 13 6.1 11.3 0.00 0.28 0.28 94 1008.5
20260506214528 45 20 5.2 11.3 0.00 0.28 0.28 94 1008.4
20260506213028 45 347 4.3 8.7 0.00 0.28 0.28 95 1008.4
20260506211526 45 298 2.6 8.7 0.00 0.28 0.28 95 1008.3
20260506210028 45 360 0.9 7.8 0.00 0.28 0.28 95 1008.0
20260506204523 45 290 4.3 13.0 0.00 0.28 0.28 95 1008.0
20260506203028 45 325 3.5 9.6 0.00 0.28 0.28 95 1007.6
20260506201520 45 355 4.3 9.6 0.00 0.28 0.28 95 1007.7
20260506200019 45 16 6.1 10.4 0.00 0.28 0.28 95 1007.3
20260506194616 45 30 7.0 10.4 0.01 0.32 0.28 95 1007.0
20260506193015 45 11 5.2 12.2 0.02 0.32 0.28 95 1006.7
20260506191515 45 5 7.0 11.3 0.02 0.32 0.28 95 1006.8
20260506190012 45 20 7.8 13.9 0.02 0.32 0.28 95 1006.7
20260506184510 45 343 4.3 13.0 0.01 0.31 0.27 95 1006.7
20260506183011 45 347 5.2 10.4 0.00 0.30 0.26 95 1006.4
20260506181508 46 327 1.7 7.0 0.00 0.30 0.26 96 1006.0
20260506180012 45 12 1.7 7.8 0.01 0.30 0.26 95 1005.8
20260506174507 45 342 2.6 4.3 0.01 0.30 0.26 96 1005.8
20260506173016 45 300 3.5 10.4 0.02 0.30 0.26 95 1005.6
20260506171506 45 279 3.5 8.7 0.02 0.30 0.26 95 1005.4
20260506170005 45 323 2.6 8.7 0.02 0.28 0.25 95 1005.5
20260506164504 44 279 3.5 8.7 0.02 0.28 0.25 95 1005.4
20260506163004 44 345 1.7 8.7 0.01 0.28 0.24 95 1005.3
20260506161503 45 307 3.5 7.8 0.03 0.28 0.24 95 1005.2
20260506160003 45 355 1.7 2.6 0.03 0.27 0.23 94 1004.9
20260506154502 45 24 1.7 5.2 0.03 0.27 0.23 95 1004.7
20260506153000 45 216 0.9 3.5 0.03 0.27 0.23 95 1004.6
20260506151603 45 360 3.5 13.0 0.01 0.25 0.21 93 1004.7
20260506150056 47 331 7.8 13.0 0.01 0.24 0.20 90 1004.7
20260506144553 50 334 1.7 4.3 0.02 0.24 0.20 92 1004.3
20260506143053 51 317 1.7 4.3 0.02 0.24 0.20 92 1004.1
20260506141552 56 30 0.0 3.5 0.04 0.24 0.20 94 1003.7
20260506140050 56 184 2.6 7.0 0.04 0.23 0.19 94 1003.9
20260506134548 55 207 1.7 4.3 0.05 0.22 0.18 95 1003.9
20260506133046 55 209 2.6 8.7 0.08 0.22 0.18 94 1004.0
20260506131551 55 232 3.5 6.1 0.07 0.20 0.16 94 1004.1
20260506130058 55 238 1.7 6.1 0.08 0.19 0.15 94 1004.5
20260506124550 55 202 1.7 9.6 0.07 0.17 0.13 94 1004.5
20260506123043 55 173 4.3 11.3 0.04 0.14 0.10 94 1004.7
20260506121540 55 182 4.3 8.7 0.03 0.13 0.09 94 1004.4
20260506120040 55 213 3.5 11.3 0.02 0.11 0.07 94 1004.1
20260506114538 54 207 1.7 7.8 0.03 0.10 0.06 94 1004.0
20260506113040 54 215 1.7 6.1 0.04 0.10 0.06 95 1004.1
20260506111531 53 193 0.9 2.6 0.05 0.10 0.06 94 1004.1
20260506110030 53 234 1.7 5.2 0.04 0.09 0.05 94 1004.5
20260506104528 53 256 1.7 5.2 0.02 0.07 0.03 94 1004.5
20260506103027 52 224 1.7 6.1 0.02 0.06 0.02 93 1004.3
20260506101538 52 208 1.7 4.3 0.01 0.05 0.01 92 1004.3
20260506100021 52 192 0.9 3.5 0.01 0.05 0.01 91 1004.5
20260506094524 52 259 0.9 2.6 0.01 0.05 0.01 91 1004.5
20260506093020 52 215 0.9 3.5 0.00 0.04 0.00 90 1004.4
20260506091514 52 213 0.0 4.3 0.00 0.04 0.00 90 1004.4
20260506090007 52 231 2.6 5.2 0.00 0.04 0.00 91 1004.4
20260506084503 51 273 1.7 3.5 0.00 0.04 0.00 92 1004.5
20260506083001 50 191 0.0 8.7 0.00 0.04 0.00 93 1004.7
20260506081602 50 171 0.0 5.2 0.00 0.04 0.00 93 1004.7
20260506073056 49 153 0.0 1.7 0.00 0.04 0.00 92 1004.9
20260506071559 49 34 1.7 3.5 0.00 0.04 0.00 92 1004.8